Mountain Home, Arkansas, United States (72653)
Lat: 36.34N, Lon: 92.39W
Wx Zone: ARZ005
Local Info
Past Weather Observations for Thursday, December 18, 2014

NOTE: This archive is for the closest National Weather Service station to Mountain Home. Information may differ from the station used for current weather conditions.

Click here for Long-term Archive

Time Weather Temperature Dewpoint Humidity Pressure Winds Precip Visibility
23:53
Obscured
Fog
37°F / 3°C 37°F / 3°C 100% 30.24 in
(1024 mb)
Calm - 1/2SM
23:41
Obscured
Fog
37°F / 3°C 37°F / 3°C 100% 30.24 in
(1024 mb)
Calm - 1/2SM
23:33
Overcast
Fog And Mist
37°F / 3°C 37°F / 3°C 100% 30.24 in
(1024 mb)
Calm - 3/4SM
23:11
Overcast
Fog And Mist
37°F / 3°C 37°F / 3°C 100% 30.24 in
(1024 mb)
SSE 3.5 mph
(SSE 6 kph)
- 1 1/2SM
23:02
Overcast
Fog And Mist
37°F / 3°C 37°F / 3°C 100% 30.24 in
(1024 mb)
SE 3.5 mph
(SE 6 kph)
- 1 1/2SM
22:53
Overcast
Fog And Mist
37°F / 3°C 37°F / 3°C 100% 30.24 in
(1024 mb)
Calm - 2SM
22:45
Overcast
Fog And Mist
37°F / 3°C 37°F / 3°C 100% 30.24 in
(1024 mb)
Calm - 2 1/2SM
22:36
Overcast
Fog And Mist
37°F / 3°C 37°F / 3°C 100% 30.24 in
(1024 mb)
Calm - 3SM
21:53
Overcast
Fog And Mist
37°F / 3°C 36°F / 2°C 93% 30.24 in
(1024 mb)
SE 3.5 mph
(SE 6 kph)
- 5SM
20:53
Overcast
Fog And Mist
37°F / 3°C 36°F / 2°C 93% 30.21 in
(1023 mb)
Calm - 5SM
19:53
Overcast
37°F / 3°C 36°F / 2°C 93% 30.21 in
(1023 mb)
ENE 3.5 mph
(ENE 6 kph)
- 7SM
18:53
Overcast
37°F / 3°C 36°F / 2°C 93% 30.21 in
(1023 mb)
Calm - 7SM
17:53
Overcast
37°F / 3°C 36°F / 2°C 93% 30.18 in
(1022 mb)
Calm - 8SM
16:53
Overcast
37°F / 3°C 36°F / 2°C 93% 30.15 in
(1021 mb)
Calm - 7SM
15:53
Overcast
37°F / 3°C 36°F / 2°C 93% 30.15 in
(1021 mb)
Calm - 7SM
14:53
Overcast
37°F / 3°C 36°F / 2°C 93% 30.15 in
(1021 mb)
Calm - 7SM
13:53
Overcast
37°F / 3°C 36°F / 2°C 93% 30.15 in
(1021 mb)
Calm - 7SM
12:53
Overcast
37°F / 3°C 34°F / 1°C 87% 30.18 in
(1022 mb)
SE 4.6 mph
(SE 7 kph)
- 7SM
11:53
Overcast
36°F / 2°C 34°F / 1°C 93% 30.18 in
(1022 mb)
SSE 6.9 mph
(SSE 11 kph)
- 7SM
10:53
Overcast
36°F / 2°C 34°F / 1°C 93% 30.21 in
(1023 mb)
S 5.8 mph
(S 9 kph)
- 8SM
09:53
Overcast
Fog And Mist
36°F / 2°C 34°F / 1°C 93% 30.21 in
(1023 mb)
SE 5.8 mph
(SE 9 kph)
- 5SM
09:34
Overcast
Fog And Mist
36°F / 2°C 34°F / 1°C 93% 30.24 in
(1024 mb)
SE 3.5 mph
(SE 6 kph)
- 4SM
09:13
Overcast
Fog And Mist
34°F / 1°C 34°F / 1°C 100% 30.24 in
(1024 mb)
SE 4.6 mph
(SE 7 kph)
- 4SM
09:01
Overcast
Fog And Mist
34°F / 1°C 34°F / 1°C 100% 30.21 in
(1023 mb)
SE 3.5 mph
(SE 6 kph)
- 4SM
08:53
Overcast
Fog And Mist
34°F / 1°C 34°F / 1°C 100% 30.21 in
(1023 mb)
SE 4.6 mph
(SE 7 kph)
- 4SM
08:49
Overcast
Fog And Mist
34°F / 1°C 34°F / 1°C 100% 30.21 in
(1023 mb)
SE 5.8 mph
(SE 9 kph)
- 3SM
08:34
Overcast
Fog And Mist
34°F / 1°C 34°F / 1°C 100% 30.21 in
(1023 mb)
SSE 4.6 mph
(SSE 7 kph)
- 2 1/2SM
08:24
Overcast
Fog And Mist
34°F / 1°C 34°F / 1°C 100% 30.21 in
(1023 mb)
SE 3.5 mph
(SE 6 kph)
- 2 1/2SM
07:53
Overcast
Fog And Mist
34°F / 1°C 34°F / 1°C 100% 30.21 in
(1023 mb)
SE 4.6 mph
(SE 7 kph)
- 5SM
06:53
Overcast
34°F / 1°C 32°F / 0°C 93% 30.21 in
(1023 mb)
SE 4.6 mph
(SE 7 kph)
- 7SM
05:53
Overcast
34°F / 1°C 34°F / 1°C 100% 30.18 in
(1022 mb)
SE 5.8 mph
(SE 9 kph)
- 8SM
05:06
Overcast
34°F / 1°C 34°F / 1°C 100% 30.18 in
(1022 mb)
SE 5.8 mph
(SE 9 kph)
- 8SM
04:53
Overcast
34°F / 1°C 34°F / 1°C 100% 30.18 in
(1022 mb)
E 5.8 mph
(E 9 kph)
- 8SM
04:46
Overcast
34°F / 1°C 34°F / 1°C 100% 30.18 in
(1022 mb)
ESE 5.8 mph
(ESE 9 kph)
- 7SM
03:53
Overcast
Fog And Mist
34°F / 1°C 34°F / 1°C 100% 30.18 in
(1022 mb)
SE 5.8 mph
(SE 9 kph)
- 6SM
02:53
Overcast
34°F / 1°C 34°F / 1°C 100% 30.21 in
(1023 mb)
SE 5.8 mph
(SE 9 kph)
- 8SM
02:49
Overcast
34°F / 1°C 34°F / 1°C 100% 30.21 in
(1023 mb)
SE 6.9 mph
(SE 11 kph)
- 8SM
02:07
Overcast
34°F / 1°C 34°F / 1°C 100% 30.21 in
(1023 mb)
SE 5.8 mph
(SE 9 kph)
- 8SM
01:53
Overcast
34°F / 1°C 34°F / 1°C 100% 30.21 in
(1023 mb)
SE 3.5 mph
(SE 6 kph)
0.00 in
(0.00 mm)
7SM
00:53
Overcast
Light Rain
34°F / 1°C 34°F / 1°C 100% 30.21 in
(1023 mb)
E 5.8 mph
(E 9 kph)
0.00 in
(0.00 mm)
6SM
00:33
Overcast
Fog And Mist
34°F / 1°C 34°F / 1°C 100% 30.21 in
(1023 mb)
SE 5.8 mph
(SE 9 kph)
0.00 in
(0.00 mm)
6SM
00:00
Overcast
Light Rain
34°F / 1°C 34°F / 1°C 100% 30.21 in
(1023 mb)
SE 8.1 mph
(SE 13 kph)
0.00 in
(0.00 mm)
5SM
Time Weather Temperature Dewpoint Humidity Pressure Winds Precip Visibility


Weather for websites

WeatherForYou.com, LLC is not responsible for any damages or problems caused by this service. Current weather conditions are obtained from the closest station including government and personal stations which may have varying degrees of accuracy. Weather forecasts are derived from the NOAA NDFD. Like all things, this site belongs to Jesus Christ... He just trusts me to maintain it. If you have any questions or comments email webmaster@weatherforyou.com

Copyright © 2014, WeatherForYou.com LLC. All rights reserved.